Date String (YYYY-MM-DD hh:mm:ss) UTC,Instrument flags,Ambient pressure (hPa),Sample flow (lpm),Bypass flow (lpm),Sample temperature (°C),Ambient temperature (°C),ASC tube jacket temperature (°C),LED temperature (°C),Box temperature (°C),Sample RH (%),Span deviation,Mass concentration (μg/m³),Mass concentration (μg/m³),Mass concentration (μg/m³)
DateTimeUTC,F1_M11,P_M11,Q1_M11,Q2_M11,T1_M11,T2_M11,T3_M11,T4_M11,T5_M11,U1_M11,ZSPAN_M11,X2_M11,X0_M11,X1_M11
2022-01-11 13:00:00,,0831.2,5.00,0.00,22.6,21.7,00.0,31.6,24.3,04.1,0000.0,0000.14,0000.19,0000.12
2022-01-11 13:01:00,,0831.2,5.00,0.00,22.5,21.8,00.0,31.6,24.3,04.1,0000.0,0000.13,0000.17,0000.12
2022-01-11 13:02:00,,0831.2,4.99,0.00,22.5,21.8,00.0,31.6,24.3,04.2,0000.0,0000.13,0000.17,0000.12
2022-01-11 13:03:00,,0831.2,5.01,0.00,22.5,21.8,00.0,31.6,24.3,04.1,0000.0,0000.13,0000.18,0000.12
2022-01-11 13:04:00,,0831.2,4.99,0.00,22.5,21.8,00.0,31.6,24.3,04.1,0000.0,0000.14,0000.18,0000.12
2022-01-11 13:05:00,,0831.2,4.99,0.00,22.5,21.8,00.0,31.6,24.3,04.1,0000.0,0000.14,0000.17,0000.12
2022-01-11 13:06:00,,0831.2,5.01,0.00,22.5,21.8,00.0,31.6,24.3,04.1,0000.0,0000.14,0000.17,0000.13
2022-01-11 13:07:00,,0831.2,5.01,0.00,22.5,21.8,00.0,31.6,24.3,04.2,0000.0,0000.14,0000.17,0000.13
2022-01-11 13:08:00,,0831.2,4.99,0.00,22.5,21.8,00.0,31.6,24.3,04.1,0000.0,0000.14,0000.17,0000.12
2022-01-11 13:09:00,,0831.2,5.02,0.00,22.5,21.8,00.0,31.6,24.3,04.1,0000.0,0000.15,0000.20,0000.12
2022-01-11 13:10:00,,0831.2,5.00,0.00,22.5,21.8,00.0,31.6,24.3,04.2,0000.0,0000.16,0000.22,0000.13
2022-01-11 13:11:00,,0831.2,5.01,0.00,22.5,21.8,00.0,31.6,24.3,04.2,0000.0,0000.16,0000.32,0000.13
2022-01-11 13:12:00,,0831.2,4.99,0.00,22.5,21.8,00.0,31.6,24.3,04.2,0000.0,0000.17,0001.64,0000.13
2022-01-11 13:13:00,,0831.2,5.01,0.00,22.5,21.8,00.0,31.5,24.3,04.5,0000.0,0000.17,0001.64,0000.13
2022-01-11 13:14:00,,0831.2,5.00,0.00,22.5,21.8,00.0,31.5,24.3,04.4,0000.0,0000.18,0001.67,0000.13
2022-01-11 13:15:00,,0831.2,5.00,0.00,22.5,21.8,00.0,31.5,24.2,04.3,0000.0,0000.18,0001.69,0000.13
2022-01-11 13:16:00,,0831.2,5.00,0.00,22.5,21.9,00.0,31.6,24.3,04.3,0000.0,0000.17,0001.66,0000.13
2022-01-11 13:17:00,,0831.2,5.00,0.00,22.6,22.4,00.0,31.6,24.5,04.3,0000.0,0000.16,0001.66,0000.13
2022-01-11 13:18:00,,0831.3,5.01,0.00,22.7,23.1,00.0,31.6,24.7,04.2,0000.0,0000.16,0001.66,0000.13
2022-01-11 13:19:00,,0831.3,5.00,0.00,22.8,23.1,00.0,31.7,24.8,04.1,0000.0,0000.17,0001.66,0000.13
2022-01-11 13:20:00,,0831.3,4.99,0.00,22.8,23.0,00.0,31.7,24.8,04.1,0000.0,0000.16,0001.64,0000.13
2022-01-11 13:21:00,,0831.2,5.00,0.00,22.9,22.8,00.0,31.7,24.8,04.1,0000.0,0000.15,0001.61,0000.13
2022-01-11 13:22:00,,0831.2,5.00,0.00,22.8,22.7,00.0,31.7,24.8,04.0,0000.0,0000.15,0001.60,0000.13
2022-01-11 13:23:00,,0831.2,5.01,0.00,22.8,22.6,00.0,31.7,24.7,04.0,0000.0,0000.14,0000.28,0000.13
2022-01-11 13:24:00,,0831.2,4.99,0.00,22.8,22.5,00.0,31.7,24.7,03.9,0000.0,0000.15,0000.19,0000.13
2022-01-11 13:25:00,,0831.2,5.00,0.00,22.8,22.4,00.0,31.7,24.6,03.9,0000.0,0000.14,0000.17,0000.13
2022-01-11 13:26:00,,0831.2,5.00,0.00,22.8,22.3,00.0,31.7,24.6,03.9,0000.0,0000.13,0000.14,0000.13
2022-01-11 13:27:00,,0831.3,5.02,0.00,22.8,22.2,00.0,31.7,24.6,04.0,0000.0,0000.13,0000.14,0000.13
2022-01-11 13:28:00,,0831.2,4.98,0.00,22.8,22.2,00.0,31.7,24.6,04.2,0000.0,0000.13,0000.15,0000.13
2022-01-11 13:29:00,,0831.2,5.00,0.00,22.8,22.2,00.0,31.7,24.6,04.0,0000.0,0000.13,0000.14,0000.13
2022-01-11 13:30:00,,0831.2,5.00,0.00,22.8,22.1,00.0,31.7,24.5,04.0,0000.0,0000.13,0000.15,0000.13
2022-01-11 13:31:00,,0831.2,4.99,0.00,22.7,22.1,00.0,31.7,24.5,04.1,0000.0,0000.14,0000.16,0000.13
2022-01-11 13:32:00,,0831.2,4.99,0.00,22.7,22.0,00.0,31.7,24.4,04.2,0000.0,0000.14,0000.16,0000.13
2022-01-11 13:33:00,,0831.2,5.00,0.00,22.7,22.0,00.0,31.7,24.4,04.3,0000.0,0000.13,0000.15,0000.13
2022-01-11 13:34:00,,0831.2,5.00,0.00,22.7,22.0,00.0,31.7,24.4,04.2,0000.0,0000.13,0000.15,0000.13
2022-01-11 13:35:00,,0831.3,4.99,0.00,22.7,22.0,00.0,31.7,24.4,04.3,0000.0,0000.13,0000.15,0000.13
2022-01-11 13:36:00,,0831.4,5.01,0.00,22.6,21.9,00.0,31.7,24.3,04.5,0000.0,0000.14,0000.16,0000.13
2022-01-11 13:37:00,,0831.4,5.01,0.00,22.6,21.9,00.0,31.7,24.4,04.4,0000.0,0000.13,0000.16,0000.12
2022-01-11 13:38:00,,0831.4,4.99,0.00,22.6,21.9,00.0,31.7,24.3,04.2,0000.0,0000.13,0000.16,0000.12
2022-01-11 13:39:00,,0831.5,5.01,0.00,22.6,21.9,00.0,31.7,24.3,04.2,0000.0,0000.14,0000.17,0000.12
2022-01-11 13:40:00,,0831.4,5.00,0.00,22.6,21.8,00.0,31.7,24.3,04.3,0000.0,0000.15,0000.18,0000.12
2022-01-11 13:41:00,,0831.4,5.01,0.00,22.5,21.8,00.0,31.7,24.2,04.1,0000.0,0000.15,0000.18,0000.13
2022-01-11 13:42:00,,0831.5,4.99,0.00,22.5,21.8,00.0,31.7,24.2,04.1,0000.0,0000.15,0000.17,0000.12
2022-01-11 13:43:00,,0831.5,5.00,0.00,22.5,21.7,00.0,31.6,24.2,04.2,0000.0,0000.15,0000.17,0000.12
2022-01-11 13:44:00,,0831.5,5.00,0.00,22.5,21.8,00.0,31.6,24.2,04.5,0000.0,0000.14,0000.17,0000.12
2022-01-11 13:45:00,,0831.4,4.99,0.00,22.5,21.8,00.0,31.6,24.3,04.4,0000.0,0000.15,0000.17,0000.13
2022-01-11 13:46:00,,0831.5,5.00,0.00,22.5,21.8,00.0,31.6,24.3,04.5,0000.0,0000.16,0000.18,0000.13
2022-01-11 13:47:00,,0831.5,5.01,0.00,22.5,21.8,00.0,31.6,24.3,04.5,0000.0,0000.15,0000.17,0000.13
2022-01-11 13:48:00,,0831.5,5.00,0.00,22.5,21.8,00.0,31.6,24.3,04.3,0000.0,0000.15,0000.18,0000.13
2022-01-11 13:49:00,,0831.5,4.99,0.00,22.5,21.8,00.0,31.6,24.3,04.3,0000.0,0000.15,0000.18,0000.13
2022-01-11 13:50:00,,0831.5,5.01,0.00,22.5,21.8,00.0,31.6,24.3,04.4,0000.0,0000.16,0000.21,0000.14
2022-01-11 13:51:00,,0831.5,5.00,0.00,22.6,21.9,00.0,31.6,24.3,04.4,0000.0,0000.15,0000.19,0000.14
2022-01-11 13:52:00,,0831.5,5.00,0.00,22.5,21.9,00.0,31.6,24.3,04.4,0000.0,0000.16,0000.19,0000.14
2022-01-11 13:53:00,,0831.5,5.00,0.00,22.5,21.9,00.0,31.6,24.3,04.4,0000.0,0000.17,0000.21,0000.15
2022-01-11 13:54:00,,0831.6,5.00,0.00,22.6,21.8,00.0,31.6,24.3,04.6,0000.0,0000.19,0000.24,0000.15
2022-01-11 13:55:00,,0831.5,5.00,0.00,22.6,21.8,00.0,31.6,24.3,04.6,0000.0,0000.19,0000.25,0000.16
2022-01-11 13:56:00,,0831.5,5.00,0.00,22.6,21.8,00.0,31.6,24.3,04.8,0000.0,0000.19,0000.26,0000.16
2022-01-11 13:57:00,,0831.5,4.99,0.00,22.6,21.8,00.0,31.6,24.3,05.1,0000.0,0000.19,0000.26,0000.16
2022-01-11 13:58:00,,0831.6,5.01,0.00,22.6,21.8,00.0,31.6,24.3,05.1,0000.0,0000.20,0000.26,0000.16
2022-01-11 13:59:00,,0831.5,5.00,0.00,22.5,21.8,00.0,31.6,24.2,05.0,0000.0,0000.20,0000.27,0000.16
